Location: Poprad
(49.0500°N, 20.3000°E)
Time: 18:36:53
(UTC+02:00)

ITUPSAT 1 - Pass Details

Date: 30 April 2024
Orbit: 694 x 707 km, 98.5° (Epoch: 20 May)

Event Time Altitude Azimuth Distance (km) Brightness Sun altitude
Rises 00:44:27 0° 358° (N) 3,086 ? -26.1°
Reaches altitude 10° 00:48:09 10° 328° (NNW) 2,162 ? -26.0°
Maximum altitude 00:49:51 12° 307° (NW) 2,031 ? -26.0°
Drops below altitude 10° 00:51:33 10° 286° (WNW) 2,156 ? -26.0°
Enters shadow 00:52:56 - 271° (W) 2,423 ? -26.0°
